Time,TemperatureF,DewpointF,PressureIn,WindDirection,WindDirectionDegrees,WindSpeedMPH,WindSpeedGustMPH,Humidity,HourlyPrecipIn,Conditions,Clouds,dailyrainin,SolarRadiationWatts/m^2,SoftwareType,DateUTC
2013-02-15 00:02:00,29.6,25.9,30.13,SW,236,2.3,2.3,86,0.00,CLR,SCT,0.00,0.0,WeatherDisplay:10.37,2013-02-14 23:02:00,
2013-02-15 00:07:00,29.5,25.8,30.12,SW,236,0.0,0.0,86,0.00,CLR,SCT,0.00,0.0,WeatherDisplay:10.37,2013-02-14 23:07:00,
2013-02-15 00:12:00,29.5,25.8,30.12,SW,236,2.0,2.0,86,0.00,CLR,SCT,0.00,0.0,WeatherDisplay:10.37,2013-02-14 23:12:00,
2013-02-15 00:17:00,29.6,25.9,30.12,SW,236,3.0,3.0,86,0.00,CLR,SCT,0.00,0.0,WeatherDisplay:10.37,2013-02-14 23:17:00,
2013-02-15 00:22:00,29.5,25.8,30.12,East,90,4.0,4.0,86,0.00,CLR,SCT,0.00,0.0,WeatherDisplay:10.37,2013-02-14 23:22:00,
2013-02-15 00:27:00,29.5,25.8,30.12,East,90,4.0,4.0,86,0.00,CLR,SCT,0.00,0.0,WeatherDisplay:10.37,2013-02-14 23:27:00,
2013-02-15 00:32:00,29.5,25.8,30.12,East,90,2.0,2.0,86,0.00,CLR,SCT,0.00,0.0,WeatherDisplay:10.37,2013-02-14 23:32:00,
2013-02-15 00:37:00,29.5,25.8,30.12,East,90,4.6,4.6,86,0.00,CLR,SCT,0.00,0.0,WeatherDisplay:10.37,2013-02-14 23:37:00,
2013-02-15 00:42:00,29.6,25.9,30.12,East,90,3.5,3.5,86,0.00,CLR,SCT,0.00,0.0,WeatherDisplay:10.37,2013-02-14 23:42:00,
2013-02-15 00:47:00,29.5,25.8,30.12,East,90,1.2,1.2,86,0.00,OVC,SCT,0.00,0.0,WeatherDisplay:10.37,2013-02-14 23:47:00,
2013-02-15 00:52:00,29.5,25.8,30.12,East,90,3.5,3.5,86,0.00,CLR,SCT,0.00,0.0,WeatherDisplay:10.37,2013-02-14 23:52:00,
2013-02-15 00:57:00,29.5,25.8,30.12,East,90,2.0,2.0,86,0.00,CLR,SCT,0.00,0.0,WeatherDisplay:10.37,2013-02-14 23:57:00,
2013-02-15 01:02:00,29.5,25.8,30.11,East,90,1.2,1.2,86,0.00,CLR,SCT,0.00,0.0,WeatherDisplay:10.37,2013-02-15 00:02:00,
2013-02-15 01:17:00,29.5,25.8,30.11,East,90,2.3,0.0,86,0.00,CLR,SCT,0.00,0.0,WeatherDisplay:10.37,2013-02-15 00:17:00,
2013-02-15 01:22:00,29.6,25.9,30.11,East,90,1.2,1.2,86,0.00,CLR,SCT,0.00,0.0,WeatherDisplay:10.37,2013-02-15 00:22:00,
2013-02-15 01:27:00,29.6,25.9,30.11,East,90,0.0,0.0,86,0.00,CLR,SCT,0.00,0.0,WeatherDisplay:10.37,2013-02-15 00:27:00,
2013-02-15 01:32:00,29.6,25.9,30.11,East,90,3.5,3.5,86,0.00,CLR,SCT,0.00,0.0,WeatherDisplay:10.37,2013-02-15 00:32:00,
2013-02-15 01:37:00,29.6,25.9,30.11,East,90,2.0,2.0,86,0.00,CLR,SCT,0.00,0.0,WeatherDisplay:10.37,2013-02-15 00:37:00,
2013-02-15 01:42:00,29.6,25.9,30.11,East,90,3.5,3.5,86,0.00,CLR,SCT,0.00,0.0,WeatherDisplay:10.37,2013-02-15 00:42:00,
2013-02-15 01:47:00,29.6,25.9,30.11,East,90,3.5,3.5,86,0.00,CLR,SCT,0.00,0.0,WeatherDisplay:10.37,2013-02-15 00:47:00,
2013-02-15 01:52:00,29.6,25.9,30.10,East,90,2.3,2.3,86,0.00,CLR,SCT,0.00,0.0,WeatherDisplay:10.37,2013-02-15 00:52:00,
2013-02-15 01:57:00,29.6,25.9,30.10,East,90,5.0,5.0,86,0.00,CLR,SCT,0.00,0.0,WeatherDisplay:10.37,2013-02-15 00:57:00,
2013-02-15 02:02:00,29.6,25.9,30.10,East,90,2.3,2.3,86,0.00,CLR,SCT,0.00,0.0,WeatherDisplay:10.37,2013-02-15 01:02:00,
2013-02-15 02:07:00,29.6,25.9,30.10,East,90,5.0,5.0,86,0.00,CLR,SCT,0.00,0.0,WeatherDisplay:10.37,2013-02-15 01:07:00,
2013-02-15 02:12:00,29.6,25.9,30.10,East,90,3.5,3.5,86,0.00,CLR,SCT,0.00,0.0,WeatherDisplay:10.37,2013-02-15 01:12:00,
2013-02-15 02:17:00,29.6,25.9,30.10,East,90,2.3,2.3,86,0.00,CLR,SCT,0.00,0.0,WeatherDisplay:10.37,2013-02-15 01:17:00,
2013-02-15 02:25:00,29.6,25.9,30.10,East,90,6.0,6.0,86,0.00,CLR,SCT,0.00,0.0,WeatherDisplay:10.37,2013-02-15 01:25:00,
2013-02-15 02:30:00,29.6,25.9,30.10,ESE,107,3.5,3.5,86,0.00,CLR,SCT,0.00,0.0,WeatherDisplay:10.37,2013-02-15 01:30:00,
2013-02-15 02:35:00,29.6,25.9,30.10,ESE,107,3.5,3.5,86,0.00,CLR,SCT,0.00,0.0,WeatherDisplay:10.37,2013-02-15 01:35:00,
2013-02-15 02:40:00,29.6,25.9,30.10,ESE,107,4.0,4.0,86,0.00,CLR,SCT,0.00,0.0,WeatherDisplay:10.37,2013-02-15 01:40:00,
2013-02-15 02:45:00,29.6,25.9,30.10,ESE,107,2.3,2.3,86,0.00,CLR,SCT,0.00,0.0,WeatherDisplay:10.37,2013-02-15 01:45:00,
2013-02-15 02:50:00,29.6,25.9,30.10,ESE,107,2.3,2.3,86,0.00,CLR,SCT,0.00,0.0,WeatherDisplay:10.37,2013-02-15 01:50:00,
2013-02-15 02:55:00,29.6,25.9,30.10,ESE,107,3.5,3.5,86,0.00,CLR,SCT,0.00,0.0,WeatherDisplay:10.37,2013-02-15 01:55:00,
2013-02-15 03:00:00,29.6,25.9,30.09,ESE,107,2.3,2.3,86,0.00,CLR,SCT,0.00,0.0,WeatherDisplay:10.37,2013-02-15 02:00:00,
2013-02-15 03:05:00,29.6,25.9,30.10,ESE,107,3.5,3.5,86,0.00,CLR,SCT,0.00,0.0,WeatherDisplay:10.37,2013-02-15 02:05:00,
2013-02-15 03:10:00,29.6,25.9,30.09,ESE,107,1.2,0.0,86,0.00,CLR,SCT,0.00,0.0,WeatherDisplay:10.37,2013-02-15 02:10:00,
2013-02-15 03:15:00,29.7,26.0,30.09,ESE,107,4.0,4.0,86,0.00,CLR,SCT,0.00,0.0,WeatherDisplay:10.37,2013-02-15 02:15:00,
2013-02-15 03:20:00,29.7,26.0,30.09,ESE,107,2.3,2.3,86,0.00,CLR,SCT,0.00,0.0,WeatherDisplay:10.37,2013-02-15 02:20:00,
2013-02-15 03:25:00,29.7,26.0,30.09,ESE,107,3.5,3.5,86,0.00,CLR,SCT,0.00,0.0,WeatherDisplay:10.37,2013-02-15 02:25:00,
2013-02-15 03:30:00,29.7,26.0,30.09,ESE,107,3.5,3.5,86,0.00,CLR,SCT,0.00,0.0,WeatherDisplay:10.37,2013-02-15 02:30:00,
2013-02-15 03:35:00,29.7,26.0,30.09,ESE,107,2.3,2.3,86,0.00,CLR,SCT,0.00,0.0,WeatherDisplay:10.37,2013-02-15 02:35:00,
2013-02-15 03:40:00,29.7,26.0,30.09,ESE,107,4.6,4.6,86,0.00,CLR,SCT,0.00,0.0,WeatherDisplay:10.37,2013-02-15 02:40:00,
2013-02-15 03:45:00,29.7,26.0,30.08,ESE,107,3.5,3.5,86,0.00,CLR,SCT,0.00,0.0,WeatherDisplay:10.37,2013-02-15 02:45:00,
2013-02-15 03:50:00,29.7,26.0,30.08,ESE,107,4.0,4.0,86,0.00,CLR,SCT,0.00,0.0,WeatherDisplay:10.37,2013-02-15 02:50:00,
2013-02-15 03:55:00,29.8,26.1,30.08,ESE,107,2.3,2.3,86,0.00,CLR,SCT,0.00,0.0,WeatherDisplay:10.37,2013-02-15 02:55:00,
2013-02-15 04:00:00,29.8,26.1,30.08,ESE,107,3.5,3.5,86,0.00,CLR,SCT,0.00,0.0,WeatherDisplay:10.37,2013-02-15 03:00:00,
2013-02-15 04:05:00,29.9,26.2,30.08,ESE,107,3.5,3.5,86,0.00,CLR,SCT,0.00,0.0,WeatherDisplay:10.37,2013-02-15 03:05:00,
2013-02-15 04:10:00,29.9,26.2,30.08,ESE,107,3.5,3.5,86,0.00,CLR,SCT,0.00,0.0,WeatherDisplay:10.37,2013-02-15 03:10:00,
2013-02-15 04:15:00,30.0,26.3,30.08,ESE,107,4.0,4.0,86,0.00,CLR,SCT,0.00,0.0,WeatherDisplay:10.37,2013-02-15 03:15:00,
2013-02-15 04:20:00,30.0,26.3,30.08,ESE,107,3.5,3.5,86,0.00,CLR,SCT,0.00,0.0,WeatherDisplay:10.37,2013-02-15 03:20:00,
2013-02-15 04:25:00,30.1,26.4,30.08,ESE,107,2.3,2.3,86,0.00,CLR,SCT,0.00,0.0,WeatherDisplay:10.37,2013-02-15 03:25:00,
2013-02-15 04:30:00,30.1,28.1,30.08,ESE,107,2.0,2.0,92,0.00,CLR,SCT,0.00,0.0,WeatherDisplay:10.37,2013-02-15 03:30:00,
2013-02-15 04:35:00,30.1,28.1,30.08,ESE,107,2.3,2.3,92,0.00,CLR,SCT,0.00,0.0,WeatherDisplay:10.37,2013-02-15 03:35:00,
2013-02-15 04:40:00,30.1,28.1,30.08,ESE,107,2.0,2.0,92,0.00,CLR,SCT,0.00,0.0,WeatherDisplay:10.37,2013-02-15 03:40:00,
2013-02-15 04:45:00,30.1,28.1,30.08,ESE,107,2.3,2.3,92,0.00,CLR,SCT,0.00,0.0,WeatherDisplay:10.37,2013-02-15 03:45:00,
2013-02-15 04:50:00,30.1,26.4,30.08,ESE,107,0.0,0.0,86,0.00,CLR,SCT,0.00,0.0,WeatherDisplay:10.37,2013-02-15 03:50:00,
2013-02-15 04:55:00,30.1,28.1,30.07,ESE,107,1.2,1.2,92,0.00,CLR,SCT,0.00,0.0,WeatherDisplay:10.37,2013-02-15 03:55:00,
2013-02-15 05:00:00,30.1,28.1,30.08,ESE,107,1.2,1.2,92,0.00,CLR,SCT,0.00,0.0,WeatherDisplay:10.37,2013-02-15 04:00:00,
2013-02-15 05:05:00,30.1,26.4,30.07,ESE,107,2.3,2.3,86,0.00,CLR,SCT,0.00,0.0,WeatherDisplay:10.37,2013-02-15 04:05:00,
2013-02-15 05:10:00,30.1,26.4,30.07,ESE,107,2.3,2.3,86,0.00,CLR,SCT,0.00,0.0,WeatherDisplay:10.37,2013-02-15 04:10:00,
2013-02-15 05:15:00,30.1,26.4,30.07,ESE,107,1.2,1.2,86,0.00,CLR,SCT,0.00,0.0,WeatherDisplay:10.37,2013-02-15 04:15:00,
2013-02-15 05:20:00,30.1,28.1,30.07,ESE,107,2.3,2.3,92,0.00,CLR,SCT,0.00,0.0,WeatherDisplay:10.37,2013-02-15 04:20:00,
2013-02-15 05:25:00,30.1,26.4,30.07,ESE,107,2.3,2.3,86,0.00,CLR,SCT,0.00,0.0,WeatherDisplay:10.37,2013-02-15 04:25:00,
2013-02-15 05:31:00,30.1,26.4,30.07,ESE,107,2.3,2.3,86,0.00,CLR,SCT,0.00,0.0,WeatherDisplay:10.37,2013-02-15 04:31:00,
2013-02-15 05:36:00,30.1,26.4,30.07,ESE,107,2.3,2.3,86,0.00,CLR,SCT,0.00,0.0,WeatherDisplay:10.37,2013-02-15 04:36:00,
2013-02-15 05:41:00,30.0,26.3,30.07,ESE,107,2.3,2.3,86,0.00,CLR,SCT,0.00,0.0,WeatherDisplay:10.37,2013-02-15 04:41:00,
2013-02-15 05:46:00,30.0,26.3,30.07,ESE,107,3.5,3.5,86,0.00,CLR,SCT,0.00,0.0,WeatherDisplay:10.37,2013-02-15 04:46:00,
2013-02-15 05:51:00,30.0,26.3,30.07,ESE,107,3.5,3.5,86,0.00,CLR,SCT,0.00,0.0,WeatherDisplay:10.37,2013-02-15 04:51:00,
2013-02-15 05:56:00,30.0,26.3,30.07,ESE,107,4.0,4.0,86,0.00,CLR,SCT,0.00,0.0,WeatherDisplay:10.37,2013-02-15 04:56:00,
2013-02-15 06:00:00,29.9,26.2,30.07,ESE,107,1.2,1.2,86,0.00,CLR,SCT,0.00,0.0,WeatherDisplay:10.37,2013-02-15 05:00:00,
2013-02-15 06:01:00,30.0,26.3,30.07,ESE,107,1.2,1.2,86,0.00,CLR,SCT,0.00,0.0,WeatherDisplay:10.37,2013-02-15 05:01:00,
2013-02-15 06:03:00,30.0,26.3,30.07,ESE,107,2.3,2.3,86,0.00,CLR,SCT,0.00,0.0,WeatherDisplay:10.37,2013-02-15 05:03:00,
2013-02-15 06:08:00,29.9,26.2,30.07,ESE,107,1.2,1.2,86,0.00,CLR,SCT,0.00,0.0,WeatherDisplay:10.37,2013-02-15 05:08:00,
2013-02-15 06:13:00,29.9,26.2,30.07,ESE,107,1.2,1.2,86,0.00,CLR,SCT,0.00,0.0,WeatherDisplay:10.37,2013-02-15 05:13:00,
2013-02-15 06:18:00,29.9,26.2,30.07,ESE,107,1.2,1.2,86,0.00,CLR,SCT,0.00,0.0,WeatherDisplay:10.37,2013-02-15 05:18:00,
2013-02-15 06:23:00,29.9,26.2,30.07,ESE,107,2.3,2.3,86,0.00,CLR,SCT,0.00,0.0,WeatherDisplay:10.37,2013-02-15 05:23:00,
2013-02-15 06:28:00,29.9,26.2,30.07,ESE,107,2.3,2.3,86,0.00,CLR,SCT,0.00,0.0,WeatherDisplay:10.37,2013-02-15 05:28:00,
2013-02-15 06:33:00,29.9,26.2,30.07,ESE,107,2.0,2.0,86,0.00,CLR,SCT,0.00,0.0,WeatherDisplay:10.37,2013-02-15 05:33:00,
2013-02-15 06:38:00,29.8,25.8,30.07,ESE,107,2.3,2.3,85,0.00,CLR,SCT,0.00,0.0,WeatherDisplay:10.37,2013-02-15 05:38:00,
2013-02-15 06:43:00,29.9,26.2,30.07,ESE,107,1.2,1.2,86,0.00,CLR,SCT,0.00,0.0,WeatherDisplay:10.37,2013-02-15 05:43:00,
2013-02-15 06:48:00,29.9,26.2,30.07,ESE,107,2.3,2.3,86,0.00,CLR,SCT,0.00,0.0,WeatherDisplay:10.37,2013-02-15 05:48:00,
2013-02-15 06:53:00,29.8,26.1,30.07,ESE,107,4.0,4.0,86,0.00,CLR,SCT,0.00,0.0,WeatherDisplay:10.37,2013-02-15 05:53:00,
2013-02-15 06:54:00,29.8,25.8,30.07,ESE,107,3.5,3.5,85,0.00,CLR,SCT,0.00,0.0,WeatherDisplay:10.37,2013-02-15 05:54:00,
2013-02-15 06:59:00,29.8,26.1,30.07,ESE,107,2.3,2.3,86,0.00,CLR,SCT,0.00,0.0,WeatherDisplay:10.37,2013-02-15 05:59:00,
2013-02-15 07:04:00,29.8,26.1,30.07,ESE,107,2.3,2.3,86,0.00,OVC,SCT,0.00,0.0,WeatherDisplay:10.37,2013-02-15 06:04:00,
2013-02-15 07:09:00,29.8,25.8,30.07,ESE,107,2.3,2.3,85,0.00,OVC,SCT,0.00,0.0,WeatherDisplay:10.37,2013-02-15 06:09:00,
2013-02-15 07:14:00,29.8,25.8,30.07,ESE,107,1.2,1.2,85,0.00,OVC,SCT,0.00,0.0,WeatherDisplay:10.37,2013-02-15 06:14:00,
2013-02-15 07:19:00,29.9,25.9,30.08,ESE,107,4.0,4.0,85,0.00,OVC,SCT,0.00,0.0,WeatherDisplay:10.37,2013-02-15 06:19:00,
2013-02-15 07:24:00,29.8,25.8,30.08,ESE,107,2.3,2.3,85,0.00,OVC,SCT,0.00,0.0,WeatherDisplay:10.37,2013-02-15 06:24:00,
2013-02-15 07:29:00,29.8,25.8,30.08,ESE,107,2.3,2.3,85,0.00,OVC,SCT,0.00,7.0,WeatherDisplay:10.37,2013-02-15 06:29:00,
2013-02-15 07:34:00,29.8,25.8,30.08,ESE,107,1.2,1.2,85,0.00,OVC,SCT,0.00,9.0,WeatherDisplay:10.37,2013-02-15 06:34:00,
2013-02-15 07:39:00,29.9,26.2,30.08,ESE,107,5.0,5.0,86,0.00,OVC,SCT,0.00,19.0,WeatherDisplay:10.37,2013-02-15 06:39:00,
2013-02-15 07:44:00,29.9,26.2,30.08,ESE,107,3.5,3.5,86,0.00,BKN,SCT,0.00,26.0,WeatherDisplay:10.37,2013-02-15 06:44:00,
2013-02-15 07:49:00,30.0,26.3,30.08,ESE,107,5.0,5.0,86,0.00,BKN,SCT,0.00,37.0,WeatherDisplay:10.37,2013-02-15 06:49:00,
2013-02-15 07:54:00,30.0,26.3,30.08,ESE,107,3.5,3.5,86,0.00,BKN,SCT,0.00,46.0,WeatherDisplay:10.37,2013-02-15 06:54:00,
2013-02-15 07:59:00,30.1,26.4,30.08,ESE,107,4.0,4.0,86,0.00,BKN,SCT,0.00,47.0,WeatherDisplay:10.37,2013-02-15 06:59:00,
2013-02-15 08:04:00,30.3,26.3,30.08,ESE,107,3.5,3.5,85,0.00,BKN,SCT,0.00,54.0,WeatherDisplay:10.37,2013-02-15 07:04:00,
2013-02-15 08:09:00,30.3,26.3,30.08,ESE,107,4.6,4.6,85,0.00,BKN,SCT,0.00,62.0,WeatherDisplay:10.37,2013-02-15 07:09:00,
2013-02-15 08:14:00,30.5,26.5,30.08,ESE,107,4.0,4.0,85,0.00,BKN,SCT,0.00,69.0,WeatherDisplay:10.37,2013-02-15 07:14:00,
2013-02-15 08:19:00,30.6,26.9,30.08,ESE,107,2.3,2.3,86,0.00,BKN,SCT,0.00,58.0,WeatherDisplay:10.37,2013-02-15 07:19:00,
2013-02-15 08:24:00,30.6,26.9,30.08,ESE,107,4.6,4.6,86,0.00,OVC,SCT,0.00,49.0,WeatherDisplay:10.37,2013-02-15 07:24:00,
2013-02-15 08:29:00,30.6,26.9,30.08,ESE,107,4.6,4.6,86,0.00,OVC,SCT,0.00,44.0,WeatherDisplay:10.37,2013-02-15 07:29:00,
2013-02-15 08:34:00,30.6,26.9,30.08,ESE,107,4.6,4.6,86,0.00,OVC,SCT,0.00,40.0,WeatherDisplay:10.37,2013-02-15 07:34:00,
2013-02-15 08:39:00,30.6,26.9,30.08,East,98,6.9,6.9,86,0.00,OVC,SCT,0.00,49.0,WeatherDisplay:10.37,2013-02-15 07:39:00,
2013-02-15 08:44:00,30.6,26.9,30.08,East,98,2.3,2.3,86,0.00,OVC,SCT,0.00,54.0,WeatherDisplay:10.37,2013-02-15 07:44:00,
2013-02-15 08:49:00,30.7,26.7,30.08,East,99,6.0,6.0,85,0.00,OVC,SCT,0.00,49.0,WeatherDisplay:10.37,2013-02-15 07:49:00,
2013-02-15 08:54:00,30.7,26.7,30.08,East,98,3.5,3.5,85,0.00,OVC,SCT,0.00,47.0,WeatherDisplay:10.37,2013-02-15 07:54:00,
2013-02-15 08:59:00,30.7,26.7,30.08,East,97,4.6,4.6,85,0.00,OVC,SCT,0.00,65.0,WeatherDisplay:10.37,2013-02-15 07:59:00,
2013-02-15 09:04:00,30.7,26.7,30.09,East,97,4.6,4.6,85,0.00,OVC,SCT,0.00,74.0,WeatherDisplay:10.37,2013-02-15 08:04:00,
2013-02-15 09:09:00,30.9,26.9,30.09,East,97,3.5,3.5,85,0.00,OVC,SCT,0.00,81.0,WeatherDisplay:10.37,2013-02-15 08:09:00,
2013-02-15 09:14:00,30.9,26.9,30.09,East,98,5.8,5.8,85,0.00,OVC,SCT,0.00,83.0,WeatherDisplay:10.37,2013-02-15 08:14:00,
2013-02-15 09:19:00,31.0,27.0,30.09,East,98,4.0,4.0,85,0.00,OVC,SCT,0.00,98.0,WeatherDisplay:10.37,2013-02-15 08:19:00,
2013-02-15 09:24:00,31.2,27.2,30.09,East,98,5.0,5.0,85,0.00,BKN,SCT,0.00,128.0,WeatherDisplay:10.37,2013-02-15 08:24:00,
2013-02-15 09:29:00,31.4,27.4,30.09,East,98,4.0,4.0,85,0.00,BKN,SCT,0.00,156.0,WeatherDisplay:10.37,2013-02-15 08:29:00,
2013-02-15 09:34:00,31.6,27.6,30.09,East,98,2.3,2.3,85,0.00,BKN,SCT,0.00,158.0,WeatherDisplay:10.37,2013-02-15 08:34:00,
2013-02-15 09:39:00,31.8,27.8,30.09,East,98,4.0,4.0,85,0.00,BKN,SCT,0.00,160.0,WeatherDisplay:10.37,2013-02-15 08:39:00,
2013-02-15 09:44:00,32.2,28.2,30.09,East,99,4.6,4.6,85,0.00,BKN,SCT,0.00,162.0,WeatherDisplay:10.37,2013-02-15 08:44:00,
2013-02-15 09:49:00,32.2,28.2,30.09,East,99,4.6,4.6,85,0.00,BKN,SCT,0.00,160.0,WeatherDisplay:10.37,2013-02-15 08:49:00,
2013-02-15 09:54:00,32.3,28.3,30.09,East,98,4.6,4.6,85,0.00,BKN,SCT,0.00,160.0,WeatherDisplay:10.37,2013-02-15 08:54:00,
2013-02-15 09:59:00,32.3,28.3,30.10,East,98,5.0,5.0,85,0.00,BKN,SCT,0.00,162.0,WeatherDisplay:10.37,2013-02-15 08:59:00,
2013-02-15 10:04:00,32.3,28.3,30.10,East,99,4.6,4.6,85,0.00,BKN,SCT,0.00,134.0,WeatherDisplay:10.37,2013-02-15 09:04:00,
2013-02-15 10:09:00,32.2,28.2,30.10,East,99,4.0,4.0,85,0.00,OVC,SCT,0.00,102.0,WeatherDisplay:10.37,2013-02-15 09:09:00,
2013-02-15 10:14:00,32.0,28.0,30.10,East,99,5.8,5.8,85,0.00,OVC,SCT,0.00,90.0,WeatherDisplay:10.37,2013-02-15 09:14:00,
2013-02-15 10:19:00,32.0,28.0,30.10,East,99,1.2,1.2,85,0.00,OVC,SCT,0.00,98.0,WeatherDisplay:10.37,2013-02-15 09:19:00,
2013-02-15 10:24:00,32.0,28.0,30.10,East,99,3.5,3.5,85,0.00,OVC,SCT,0.00,102.0,WeatherDisplay:10.37,2013-02-15 09:24:00,
2013-02-15 10:29:00,31.9,27.9,30.10,East,99,2.3,2.3,85,0.00,OVC,SCT,0.00,102.0,WeatherDisplay:10.37,2013-02-15 09:29:00,
2013-02-15 10:34:00,31.9,27.9,30.10,East,99,5.0,5.0,85,0.00,OVC,SCT,0.00,102.0,WeatherDisplay:10.37,2013-02-15 09:34:00,
2013-02-15 10:39:00,32.0,28.0,30.10,East,99,4.0,4.0,85,0.00,OVC,SCT,0.00,113.0,WeatherDisplay:10.37,2013-02-15 09:39:00,
2013-02-15 10:44:00,32.0,28.0,30.11,East,99,4.0,4.0,85,0.00,OVC,SCT,0.00,120.0,WeatherDisplay:10.37,2013-02-15 09:44:00,
2013-02-15 10:49:00,32.1,28.1,30.11,East,99,3.5,3.5,85,0.00,OVC,SCT,0.00,121.0,WeatherDisplay:10.37,2013-02-15 09:49:00,
2013-02-15 10:54:00,32.3,28.3,30.11,East,99,2.3,2.3,85,0.00,OVC,SCT,0.00,127.0,WeatherDisplay:10.37,2013-02-15 09:54:00,
2013-02-15 10:59:00,32.4,28.4,30.11,East,99,1.2,1.2,85,0.00,OVC,SCT,0.00,125.0,WeatherDisplay:10.37,2013-02-15 09:59:00,
2013-02-15 11:04:00,32.5,28.5,30.11,East,99,2.3,2.3,85,0.00,OVC,SCT,0.00,137.0,WeatherDisplay:10.37,2013-02-15 10:04:00,
2013-02-15 11:09:00,32.6,28.6,30.11,East,99,1.2,1.2,85,0.00,OVC,SCT,0.00,144.0,WeatherDisplay:10.37,2013-02-15 10:09:00,
2013-02-15 11:14:00,32.7,28.7,30.11,East,99,2.0,2.0,85,0.00,OVC,SCT,0.00,165.0,WeatherDisplay:10.37,2013-02-15 10:14:00,
2013-02-15 11:19:00,33.0,29.0,30.11,East,99,2.0,2.0,85,0.00,BKN,SCT,0.00,185.0,WeatherDisplay:10.37,2013-02-15 10:19:00,
2013-02-15 11:24:00,33.2,29.2,30.11,East,99,2.3,2.3,85,0.00,BKN,SCT,0.00,202.0,WeatherDisplay:10.37,2013-02-15 10:24:00,
2013-02-15 11:29:00,33.4,29.4,30.11,East,99,1.0,1.0,85,0.00,BKN,SCT,0.00,209.0,WeatherDisplay:10.37,2013-02-15 10:29:00,
2013-02-15 11:34:00,33.7,29.4,30.11,East,99,1.2,1.2,84,0.00,BKN,SCT,0.00,223.0,WeatherDisplay:10.37,2013-02-15 10:34:00,
2013-02-15 11:39:00,34.1,29.8,30.11,East,99,1.2,1.2,84,0.00,BKN,SCT,0.00,221.0,WeatherDisplay:10.37,2013-02-15 10:39:00,
2013-02-15 11:44:00,34.3,30.0,30.11,East,99,2.3,2.3,84,0.00,BKN,SCT,0.00,209.0,WeatherDisplay:10.37,2013-02-15 10:44:00,
2013-02-15 11:49:00,34.2,29.9,30.11,East,99,2.3,2.3,84,0.00,OVC,SCT,0.00,176.0,WeatherDisplay:10.37,2013-02-15 10:49:00,
2013-02-15 11:54:00,34.1,29.8,30.11,East,99,1.2,1.2,84,0.00,OVC,SCT,0.00,172.0,WeatherDisplay:10.37,2013-02-15 10:54:00,
2013-02-15 11:59:00,33.7,29.4,30.11,East,99,2.3,2.3,84,0.00,OVC,SCT,0.00,139.0,WeatherDisplay:10.37,2013-02-15 10:59:00,
2013-02-15 12:04:00,33.7,29.4,30.11,East,99,1.2,1.2,84,0.00,OVC,SCT,0.00,139.0,WeatherDisplay:10.37,2013-02-15 11:04:00,
2013-02-15 12:09:00,33.8,29.5,30.11,East,99,1.0,1.0,84,0.00,OVC,SCT,0.00,156.0,WeatherDisplay:10.37,2013-02-15 11:09:00,
2013-02-15 12:15:00,33.8,29.5,30.11,East,99,1.2,1.2,84,0.00,OVC,SCT,0.00,160.0,WeatherDisplay:10.37,2013-02-15 11:15:00,
2013-02-15 12:20:00,33.8,29.5,30.11,East,99,2.3,2.3,84,0.00,OVC,SCT,0.00,165.0,WeatherDisplay:10.37,2013-02-15 11:20:00,
2013-02-15 12:25:00,33.8,29.5,30.10,East,99,1.2,1.2,84,0.00,OVC,SCT,0.00,158.0,WeatherDisplay:10.37,2013-02-15 11:25:00,
2013-02-15 12:30:00,33.8,29.5,30.10,East,99,1.2,1.2,84,0.00,OVC,SCT,0.00,163.0,WeatherDisplay:10.37,2013-02-15 11:30:00,
2013-02-15 12:35:00,34.0,29.7,30.11,East,99,2.3,2.3,84,0.00,OVC,SCT,0.00,155.0,WeatherDisplay:10.37,2013-02-15 11:35:00,
2013-02-15 12:40:00,33.8,29.5,30.10,East,99,1.2,0.0,84,0.00,OVC,SCT,0.00,156.0,WeatherDisplay:10.37,2013-02-15 11:40:00,
2013-02-15 12:45:00,33.8,29.5,30.10,East,99,0.0,0.0,84,0.00,OVC,SCT,0.00,171.0,WeatherDisplay:10.37,2013-02-15 11:45:00,
2013-02-15 12:50:00,34.0,29.7,30.10,East,99,1.2,1.2,84,0.00,BKN,SCT,0.00,188.0,WeatherDisplay:10.37,2013-02-15 11:50:00,
2013-02-15 12:55:00,34.0,29.7,30.10,East,99,0.0,0.0,84,0.00,OVC,SCT,0.00,178.0,WeatherDisplay:10.37,2013-02-15 11:55:00,
2013-02-15 13:00:00,34.2,29.9,30.10,East,99,2.0,2.0,84,0.00,OVC,SCT,0.00,178.0,WeatherDisplay:10.37,2013-02-15 12:00:00,
2013-02-15 13:05:00,34.2,29.9,30.10,East,99,2.3,2.3,84,0.00,OVC,SCT,0.00,169.0,WeatherDisplay:10.37,2013-02-15 12:05:00,
2013-02-15 13:10:00,34.4,30.1,30.10,East,99,2.3,2.3,84,0.00,OVC,SCT,0.00,171.0,WeatherDisplay:10.37,2013-02-15 12:10:00,
2013-02-15 13:15:00,34.5,30.2,30.10,East,99,2.3,2.3,84,0.00,OVC,SCT,0.00,172.0,WeatherDisplay:10.37,2013-02-15 12:15:00,
2013-02-15 13:20:00,34.5,30.2,30.10,East,99,2.3,2.3,84,0.00,OVC,SCT,0.00,171.0,WeatherDisplay:10.37,2013-02-15 12:20:00,
2013-02-15 13:25:00,34.5,30.2,30.10,East,99,2.3,2.3,84,0.00,OVC,SCT,0.00,151.0,WeatherDisplay:10.37,2013-02-15 12:25:00,
2013-02-15 13:30:00,34.4,30.1,30.10,East,99,2.3,2.3,84,0.00,OVC,SCT,0.00,148.0,WeatherDisplay:10.37,2013-02-15 12:30:00,
2013-02-15 13:35:00,34.4,30.1,30.10,East,99,2.3,2.3,84,0.00,OVC,SCT,0.00,142.0,WeatherDisplay:10.37,2013-02-15 12:35:00,
2013-02-15 13:40:00,34.3,30.0,30.10,East,99,1.2,1.2,84,0.00,OVC,SCT,0.00,121.0,WeatherDisplay:10.37,2013-02-15 12:40:00,
2013-02-15 13:45:00,34.2,29.9,30.10,East,99,2.3,2.3,84,0.00,OVC,SCT,0.00,109.0,WeatherDisplay:10.37,2013-02-15 12:45:00,
2013-02-15 13:50:00,34.2,30.2,30.10,East,99,3.5,3.5,85,0.00,OVC,SCT,0.00,109.0,WeatherDisplay:10.37,2013-02-15 12:50:00,
2013-02-15 13:55:00,34.2,30.2,30.10,East,99,2.3,2.3,85,0.00,OVC,SCT,0.00,118.0,WeatherDisplay:10.37,2013-02-15 12:55:00,
2013-02-15 14:00:00,34.2,30.2,30.10,East,99,3.5,3.5,85,0.00,OVC,SCT,0.00,105.0,WeatherDisplay:10.37,2013-02-15 13:00:00,
2013-02-15 14:05:00,34.1,30.1,30.10,East,99,3.5,3.5,85,0.00,OVC,SCT,0.00,105.0,WeatherDisplay:10.37,2013-02-15 13:05:00,
2013-02-15 14:10:00,34.0,29.7,30.10,East,99,4.0,4.0,84,0.00,OVC,SCT,0.00,97.0,WeatherDisplay:10.37,2013-02-15 13:10:00,
2013-02-15 14:15:00,33.9,29.6,30.10,East,99,2.3,2.3,84,0.00,OVC,SCT,0.00,95.0,WeatherDisplay:10.37,2013-02-15 13:15:00,
2013-02-15 14:20:00,33.8,29.8,30.10,East,99,3.5,3.5,85,0.00,OVC,SCT,0.00,93.0,WeatherDisplay:10.37,2013-02-15 13:20:00,
2013-02-15 14:25:00,33.8,29.8,30.10,East,99,2.3,2.3,85,0.00,OVC,SCT,0.00,90.0,WeatherDisplay:10.37,2013-02-15 13:25:00,
2013-02-15 14:30:00,33.8,29.8,30.10,East,99,4.0,4.0,85,0.00,OVC,SCT,0.00,77.0,WeatherDisplay:10.37,2013-02-15 13:30:00,
2013-02-15 14:35:00,33.8,29.8,30.10,East,99,2.3,2.3,85,0.00,OVC,SCT,0.00,72.0,WeatherDisplay:10.37,2013-02-15 13:35:00,
2013-02-15 14:40:00,33.8,29.8,30.10,East,99,1.2,1.2,85,0.00,OVC,SCT,0.00,70.0,WeatherDisplay:10.37,2013-02-15 13:40:00,
2013-02-15 14:45:00,33.7,29.7,30.10,East,99,1.2,1.2,85,0.00,OVC,SCT,0.00,70.0,WeatherDisplay:10.37,2013-02-15 13:45:00,
2013-02-15 14:50:00,33.6,29.6,30.10,East,99,2.3,2.3,85,0.00,OVC,SCT,0.00,65.0,WeatherDisplay:10.37,2013-02-15 13:50:00,
2013-02-15 14:55:00,33.7,29.7,30.10,East,99,2.3,2.3,85,0.00,OVC,SCT,0.00,62.0,WeatherDisplay:10.37,2013-02-15 13:55:00,
2013-02-15 15:00:00,33.7,29.7,30.11,East,99,2.3,2.3,85,0.00,OVC,SCT,0.00,56.0,WeatherDisplay:10.37,2013-02-15 14:00:00,
2013-02-15 15:05:00,33.6,29.6,30.10,East,99,2.3,2.3,85,0.00,OVC,SCT,0.00,56.0,WeatherDisplay:10.37,2013-02-15 14:05:00,
2013-02-15 15:10:00,33.7,29.7,30.11,East,99,3.5,3.5,85,0.00,OVC,SCT,0.00,56.0,WeatherDisplay:10.37,2013-02-15 14:10:00,
2013-02-15 15:15:00,33.7,29.7,30.11,East,99,1.2,0.0,85,0.00,OVC,SCT,0.00,51.0,WeatherDisplay:10.37,2013-02-15 14:15:00,
2013-02-15 15:20:00,33.6,29.6,30.11,East,99,2.3,2.3,85,0.00,OVC,SCT,0.00,47.0,WeatherDisplay:10.37,2013-02-15 14:20:00,
2013-02-15 15:25:00,33.6,29.6,30.11,East,100,2.3,2.3,85,0.00,OVC,SCT,0.00,46.0,WeatherDisplay:10.37,2013-02-15 14:25:00,
2013-02-15 15:30:00,33.6,29.6,30.11,East,99,1.2,1.2,85,0.00,OVC,SCT,0.00,44.0,WeatherDisplay:10.37,2013-02-15 14:30:00,
2013-02-15 15:35:00,33.5,29.5,30.11,East,99,1.2,1.2,85,0.00,OVC,SCT,0.00,39.0,WeatherDisplay:10.37,2013-02-15 14:35:00,
2013-02-15 15:40:00,33.4,29.4,30.11,East,99,2.3,2.3,85,0.00,OVC,SCT,0.00,35.0,WeatherDisplay:10.37,2013-02-15 14:40:00,
2013-02-15 15:45:00,33.4,29.4,30.11,East,99,2.3,2.3,85,0.00,OVC,SCT,0.00,33.0,WeatherDisplay:10.37,2013-02-15 14:45:00,
2013-02-15 15:50:00,33.4,29.4,30.11,East,99,2.3,2.3,85,0.00,OVC,SCT,0.00,30.0,WeatherDisplay:10.37,2013-02-15 14:50:00,
2013-02-15 15:55:00,33.4,29.4,30.11,East,99,2.3,2.3,85,0.00,OVC,SCT,0.00,28.0,WeatherDisplay:10.37,2013-02-15 14:55:00,
2013-02-15 16:00:00,33.3,29.3,30.11,East,99,2.3,2.3,85,0.00,OVC,SCT,0.00,26.0,WeatherDisplay:10.37,2013-02-15 15:00:00,
2013-02-15 16:05:00,33.2,29.2,30.11,East,99,2.3,2.3,85,0.00,OVC,SCT,0.00,26.0,WeatherDisplay:10.37,2013-02-15 15:05:00,
2013-02-15 16:10:00,33.1,29.1,30.11,East,99,2.0,2.0,85,0.00,OVC,SCT,0.00,25.0,WeatherDisplay:10.37,2013-02-15 15:10:00,
2013-02-15 16:15:00,33.1,29.1,30.12,East,99,2.3,2.3,85,0.00,OVC,SCT,0.00,21.0,WeatherDisplay:10.37,2013-02-15 15:15:00,
2013-02-15 16:20:00,33.1,29.1,30.12,East,99,1.2,1.2,85,0.00,OVC,SCT,0.00,19.0,WeatherDisplay:10.37,2013-02-15 15:20:00,
2013-02-15 16:25:00,33.0,29.0,30.12,East,99,1.2,1.2,85,0.00,OVC,SCT,0.00,16.0,WeatherDisplay:10.37,2013-02-15 15:25:00,
2013-02-15 16:30:00,32.9,28.9,30.12,East,99,2.3,2.3,85,0.00,OVC,SCT,0.00,12.0,WeatherDisplay:10.37,2013-02-15 15:30:00,
2013-02-15 16:35:00,32.8,28.8,30.12,East,99,0.0,0.0,85,0.00,OVC,SCT,0.00,11.0,WeatherDisplay:10.37,2013-02-15 15:35:00,
2013-02-15 16:40:00,32.8,28.8,30.12,East,99,1.2,0.0,85,0.00,OVC,SCT,0.00,9.0,WeatherDisplay:10.37,2013-02-15 15:40:00,
2013-02-15 16:45:00,32.8,28.8,30.12,East,99,1.0,1.0,85,0.00,OVC,SCT,0.00,9.0,WeatherDisplay:10.37,2013-02-15 15:45:00,
2013-02-15 16:50:00,32.8,28.8,30.12,East,99,0.0,0.0,85,0.00,OVC,SCT,0.00,7.0,WeatherDisplay:10.37,2013-02-15 15:50:00,
2013-02-15 16:55:00,32.7,28.7,30.12,East,99,1.2,1.2,85,0.00,OVC,SCT,0.00,5.0,WeatherDisplay:10.37,2013-02-15 15:55:00,
2013-02-15 17:00:00,32.7,28.7,30.12,East,99,0.0,0.0,85,0.00,OVC,SCT,0.00,0.0,WeatherDisplay:10.37,2013-02-15 16:00:00,
2013-02-15 17:05:00,32.7,28.7,30.13,East,99,0.0,0.0,85,0.00,OVC,SCT,0.00,0.0,WeatherDisplay:10.37,2013-02-15 16:05:00,
2013-02-15 17:10:00,32.6,28.6,30.13,East,99,2.3,2.3,85,0.00,OVC,SCT,0.00,0.0,WeatherDisplay:10.37,2013-02-15 16:10:00,
2013-02-15 17:15:00,32.5,28.5,30.13,East,99,4.0,4.0,85,0.00,OVC,SCT,0.00,0.0,WeatherDisplay:10.37,2013-02-15 16:15:00,
2013-02-15 17:20:00,32.5,28.5,30.13,East,99,2.3,2.3,85,0.00,OVC,SCT,0.00,0.0,WeatherDisplay:10.37,2013-02-15 16:20:00,
2013-02-15 17:25:00,32.4,28.4,30.13,East,99,2.3,2.3,85,0.00,OVC,SCT,0.00,0.0,WeatherDisplay:10.37,2013-02-15 16:25:00,
2013-02-15 17:30:00,32.4,28.4,30.13,East,99,2.3,2.3,85,0.00,OVC,SCT,0.00,0.0,WeatherDisplay:10.37,2013-02-15 16:30:00,
2013-02-15 17:35:00,32.4,28.4,30.14,East,99,2.3,2.3,85,0.00,OVC,SCT,0.00,0.0,WeatherDisplay:10.37,2013-02-15 16:35:00,
2013-02-15 17:40:00,32.3,28.3,30.14,East,98,1.2,1.2,85,0.00,OVC,SCT,0.00,0.0,WeatherDisplay:10.37,2013-02-15 16:40:00,
2013-02-15 17:45:00,32.4,28.4,30.14,East,99,2.3,2.3,85,0.00,OVC,SCT,0.00,0.0,WeatherDisplay:10.37,2013-02-15 16:45:00,
2013-02-15 17:50:00,32.3,28.3,30.14,East,99,3.5,3.5,85,0.00,CLR,SCT,0.00,0.0,WeatherDisplay:10.37,2013-02-15 16:50:00,
2013-02-15 17:55:00,32.3,28.3,30.14,East,99,2.3,2.3,85,0.00,CLR,SCT,0.00,0.0,WeatherDisplay:10.37,2013-02-15 16:55:00,
2013-02-15 18:00:00,32.3,28.3,30.14,East,99,4.0,4.0,85,0.00,CLR,SCT,0.00,0.0,WeatherDisplay:10.37,2013-02-15 17:00:00,
2013-02-15 18:05:00,32.3,28.3,30.15,East,99,2.3,2.3,85,0.00,CLR,SCT,0.00,0.0,WeatherDisplay:10.37,2013-02-15 17:05:00,
2013-02-15 18:10:00,32.3,28.3,30.15,East,99,1.2,1.2,85,0.00,CLR,SCT,0.00,0.0,WeatherDisplay:10.37,2013-02-15 17:10:00,
2013-02-15 18:15:00,32.3,28.3,30.15,East,99,2.3,2.3,85,0.00,CLR,SCT,0.00,0.0,WeatherDisplay:10.37,2013-02-15 17:15:00,
2013-02-15 18:20:00,32.3,28.3,30.15,East,99,2.3,2.3,85,0.00,CLR,SCT,0.00,0.0,WeatherDisplay:10.37,2013-02-15 17:20:00,
2013-02-15 18:25:00,32.3,28.3,30.15,East,99,4.0,4.0,85,0.00,CLR,SCT,0.00,0.0,WeatherDisplay:10.37,2013-02-15 17:25:00,
2013-02-15 18:30:00,32.3,28.3,30.15,East,99,4.0,4.0,85,0.00,CLR,SCT,0.00,0.0,WeatherDisplay:10.37,2013-02-15 17:30:00,
2013-02-15 18:35:00,32.3,28.3,30.15,East,99,4.0,4.0,85,0.00,CLR,SCT,0.00,0.0,WeatherDisplay:10.37,2013-02-15 17:35:00,
2013-02-15 18:40:00,32.3,28.3,30.15,East,99,3.5,3.5,85,0.00,CLR,SCT,0.00,0.0,WeatherDisplay:10.37,2013-02-15 17:40:00,
2013-02-15 18:45:00,32.2,28.2,30.15,East,99,2.3,2.3,85,0.00,CLR,SCT,0.00,0.0,WeatherDisplay:10.37,2013-02-15 17:45:00,
2013-02-15 18:50:00,32.2,28.2,30.15,East,99,5.0,5.0,85,0.00,CLR,SCT,0.00,0.0,WeatherDisplay:10.37,2013-02-15 17:50:00,
2013-02-15 18:55:00,32.2,28.2,30.15,East,99,4.0,4.0,85,0.00,CLR,SCT,0.00,0.0,WeatherDisplay:10.37,2013-02-15 17:55:00,
2013-02-15 19:00:00,32.2,28.2,30.15,East,99,4.0,4.0,85,0.00,CLR,SCT,0.00,0.0,WeatherDisplay:10.37,2013-02-15 18:00:00,
2013-02-15 19:05:00,32.2,28.5,30.15,East,99,4.0,4.0,86,0.00,CLR,SCT,0.00,0.0,WeatherDisplay:10.37,2013-02-15 18:05:00,
2013-02-15 19:10:00,32.1,28.4,30.15,East,99,4.0,4.0,86,0.00,CLR,SCT,0.00,0.0,WeatherDisplay:10.37,2013-02-15 18:10:00,
2013-02-15 19:15:00,32.1,28.4,30.15,East,99,3.5,3.5,86,0.00,CLR,SCT,0.00,0.0,WeatherDisplay:10.37,2013-02-15 18:15:00,
2013-02-15 19:20:00,32.2,28.2,30.15,East,99,2.0,2.0,85,0.00,CLR,SCT,0.00,0.0,WeatherDisplay:10.37,2013-02-15 18:20:00,
2013-02-15 19:25:00,32.2,28.2,30.15,East,99,1.2,1.2,85,0.00,CLR,SCT,0.00,0.0,WeatherDisplay:10.37,2013-02-15 18:25:00,
2013-02-15 19:30:00,32.2,28.2,30.15,East,100,2.3,2.3,85,0.00,CLR,SCT,0.00,0.0,WeatherDisplay:10.37,2013-02-15 18:30:00,
2013-02-15 19:35:00,32.2,28.2,30.15,East,99,0.0,0.0,85,0.00,CLR,SCT,0.00,0.0,WeatherDisplay:10.37,2013-02-15 18:35:00,
2013-02-15 19:40:00,32.2,28.2,30.15,East,99,4.0,4.0,85,0.00,CLR,SCT,0.00,0.0,WeatherDisplay:10.37,2013-02-15 18:40:00,
2013-02-15 19:45:00,32.1,28.1,30.15,East,100,2.3,2.3,85,0.00,CLR,SCT,0.00,0.0,WeatherDisplay:10.37,2013-02-15 18:45:00,
2013-02-15 19:50:00,32.1,28.1,30.15,East,99,3.5,3.5,85,0.00,CLR,SCT,0.00,0.0,WeatherDisplay:10.37,2013-02-15 18:50:00,
2013-02-15 19:55:00,32.1,28.1,30.15,East,99,1.2,1.2,85,0.00,CLR,SCT,0.00,0.0,WeatherDisplay:10.37,2013-02-15 18:55:00,
2013-02-15 20:00:00,32.1,28.4,30.15,East,99,2.3,0.0,86,0.00,CLR,SCT,0.00,0.0,WeatherDisplay:10.37,2013-02-15 19:00:00,
2013-02-15 20:05:00,32.1,28.1,30.15,East,100,2.3,2.3,85,0.00,CLR,SCT,0.00,0.0,WeatherDisplay:10.37,2013-02-15 19:05:00,
2013-02-15 20:10:00,32.1,28.4,30.16,East,98,2.3,2.3,86,0.00,CLR,SCT,0.00,0.0,WeatherDisplay:10.37,2013-02-15 19:10:00,
2013-02-15 20:15:00,32.0,28.3,30.16,East,98,2.3,2.3,86,0.00,CLR,SCT,0.00,0.0,WeatherDisplay:10.37,2013-02-15 19:15:00,
2013-02-15 20:20:00,32.0,28.3,30.16,East,100,2.3,2.3,86,0.00,CLR,SCT,0.00,0.0,WeatherDisplay:10.37,2013-02-15 19:20:00,
2013-02-15 20:25:00,32.0,28.3,30.16,East,99,3.5,3.5,86,0.00,CLR,SCT,0.00,0.0,WeatherDisplay:10.37,2013-02-15 19:25:00,
2013-02-15 20:30:00,31.9,28.2,30.16,East,99,4.0,4.0,86,0.00,CLR,SCT,0.00,0.0,WeatherDisplay:10.37,2013-02-15 19:30:00,
2013-02-15 20:35:00,31.9,28.2,30.16,East,100,2.3,2.3,86,0.00,CLR,SCT,0.00,0.0,WeatherDisplay:10.37,2013-02-15 19:35:00,
2013-02-15 20:40:00,31.9,28.2,30.16,East,100,2.3,2.3,86,0.00,CLR,SCT,0.00,0.0,WeatherDisplay:10.37,2013-02-15 19:40:00,
2013-02-15 20:45:00,31.8,28.1,30.16,East,99,2.3,2.3,86,0.00,CLR,SCT,0.00,0.0,WeatherDisplay:10.37,2013-02-15 19:45:00,
2013-02-15 20:50:00,31.8,27.8,30.16,East,99,2.3,2.3,85,0.00,CLR,SCT,0.00,0.0,WeatherDisplay:10.37,2013-02-15 19:50:00,
2013-02-15 20:55:00,31.7,27.7,30.16,East,99,1.2,0.0,85,0.00,CLR,SCT,0.00,0.0,WeatherDisplay:10.37,2013-02-15 19:55:00,
2013-02-15 21:00:00,31.7,27.7,30.16,East,100,1.2,0.0,85,0.00,CLR,SCT,0.00,0.0,WeatherDisplay:10.37,2013-02-15 20:00:00,
2013-02-15 21:05:00,31.7,27.7,30.16,East,100,0.0,0.0,85,0.00,CLR,SCT,0.00,0.0,WeatherDisplay:10.37,2013-02-15 20:05:00,
2013-02-15 21:10:00,31.7,27.7,30.17,East,100,1.2,1.2,85,0.00,CLR,SCT,0.00,0.0,WeatherDisplay:10.37,2013-02-15 20:10:00,
2013-02-15 21:15:00,31.7,27.7,30.17,East,99,0.0,0.0,85,0.00,CLR,SCT,0.00,0.0,WeatherDisplay:10.37,2013-02-15 20:15:00,
2013-02-15 21:20:00,31.7,28.0,30.17,East,99,0.0,0.0,86,0.00,CLR,SCT,0.00,0.0,WeatherDisplay:10.37,2013-02-15 20:20:00,
2013-02-15 21:25:00,31.7,28.0,30.17,East,99,0.0,0.0,86,0.00,CLR,SCT,0.00,0.0,WeatherDisplay:10.37,2013-02-15 20:25:00,
2013-02-15 21:30:00,31.7,27.7,30.17,East,99,0.0,0.0,85,0.00,CLR,SCT,0.00,0.0,WeatherDisplay:10.37,2013-02-15 20:30:00,
2013-02-15 21:35:00,31.6,27.9,30.17,East,99,0.0,0.0,86,0.00,CLR,SCT,0.00,0.0,WeatherDisplay:10.37,2013-02-15 20:35:00,
2013-02-15 21:40:00,31.6,27.9,30.17,East,99,0.0,0.0,86,0.00,CLR,SCT,0.00,0.0,WeatherDisplay:10.37,2013-02-15 20:40:00,
2013-02-15 21:45:00,31.6,27.9,30.17,East,100,0.0,0.0,86,0.00,CLR,SCT,0.00,0.0,WeatherDisplay:10.37,2013-02-15 20:45:00,
2013-02-15 21:50:00,31.5,27.8,30.17,East,99,0.0,0.0,86,0.00,CLR,SCT,0.00,0.0,WeatherDisplay:10.37,2013-02-15 20:50:00,
2013-02-15 21:55:00,31.5,27.8,30.17,East,99,1.2,1.2,86,0.00,CLR,SCT,0.00,0.0,WeatherDisplay:10.37,2013-02-15 20:55:00,
2013-02-15 22:00:00,31.6,27.9,30.17,East,99,1.2,1.2,86,0.00,CLR,SCT,0.00,0.0,WeatherDisplay:10.37,2013-02-15 21:00:00,
2013-02-15 22:05:00,31.5,27.8,30.17,East,99,1.2,0.0,86,0.00,CLR,SCT,0.00,0.0,WeatherDisplay:10.37,2013-02-15 21:05:00,
2013-02-15 22:10:00,31.6,27.9,30.18,East,100,1.2,0.0,86,0.00,CLR,SCT,0.00,0.0,WeatherDisplay:10.37,2013-02-15 21:10:00,
2013-02-15 22:15:00,31.6,27.9,30.18,East,99,0.0,0.0,86,0.00,CLR,SCT,0.00,0.0,WeatherDisplay:10.37,2013-02-15 21:15:00,
2013-02-15 22:20:00,31.5,27.8,30.18,East,98,0.0,0.0,86,0.00,CLR,SCT,0.00,0.0,WeatherDisplay:10.37,2013-02-15 21:20:00,
2013-02-15 22:25:00,31.5,27.8,30.18,East,100,0.0,0.0,86,0.00,CLR,SCT,0.00,0.0,WeatherDisplay:10.37,2013-02-15 21:25:00,
2013-02-15 22:30:00,31.6,27.9,30.18,East,100,0.0,0.0,86,0.00,CLR,SCT,0.00,0.0,WeatherDisplay:10.37,2013-02-15 21:30:00,
2013-02-15 22:35:00,31.6,27.9,30.18,East,99,0.0,0.0,86,0.00,CLR,SCT,0.00,0.0,WeatherDisplay:10.37,2013-02-15 21:35:00,
2013-02-15 22:40:00,31.6,27.9,30.18,East,99,0.0,0.0,86,0.00,CLR,SCT,0.00,0.0,WeatherDisplay:10.37,2013-02-15 21:40:00,
2013-02-15 22:45:00,31.5,27.8,30.18,East,100,0.0,0.0,86,0.00,CLR,SCT,0.00,0.0,WeatherDisplay:10.37,2013-02-15 21:45:00,
2013-02-15 22:50:00,31.5,27.8,30.18,East,100,0.0,0.0,86,0.00,CLR,SCT,0.00,0.0,WeatherDisplay:10.37,2013-02-15 21:50:00,
2013-02-15 22:55:00,31.5,27.8,30.18,East,99,0.0,0.0,86,0.00,CLR,SCT,0.00,0.0,WeatherDisplay:10.37,2013-02-15 21:55:00,
2013-02-15 23:00:00,31.6,27.9,30.18,East,99,0.0,0.0,86,0.00,CLR,SCT,0.00,0.0,WeatherDisplay:10.37,2013-02-15 22:00:00,
2013-02-15 23:05:00,31.5,27.8,30.18,East,98,0.0,0.0,86,0.00,CLR,SCT,0.00,0.0,WeatherDisplay:10.37,2013-02-15 22:05:00,
2013-02-15 23:10:00,31.5,27.8,30.18,East,100,0.0,0.0,86,0.00,CLR,SCT,0.00,0.0,WeatherDisplay:10.37,2013-02-15 22:10:00,
2013-02-15 23:15:00,31.5,27.8,30.18,East,99,0.0,0.0,86,0.00,CLR,SCT,0.00,0.0,WeatherDisplay:10.37,2013-02-15 22:15:00,
2013-02-15 23:20:00,31.4,27.7,30.18,East,98,0.0,0.0,86,0.00,CLR,SCT,0.00,0.0,WeatherDisplay:10.37,2013-02-15 22:20:00,
2013-02-15 23:25:00,31.3,27.6,30.18,East,99,0.0,0.0,86,0.00,CLR,SCT,0.00,0.0,WeatherDisplay:10.37,2013-02-15 22:25:00,
2013-02-15 23:30:00,31.3,27.6,30.18,East,98,1.0,1.0,86,0.00,CLR,SCT,0.00,0.0,WeatherDisplay:10.37,2013-02-15 22:30:00,
2013-02-15 23:35:00,31.3,27.6,30.18,East,99,0.0,0.0,86,0.00,CLR,SCT,0.00,0.0,WeatherDisplay:10.37,2013-02-15 22:35:00,
2013-02-15 23:40:00,31.2,27.5,30.18,East,98,0.0,0.0,86,0.00,CLR,SCT,0.00,0.0,WeatherDisplay:10.37,2013-02-15 22:40:00,
2013-02-15 23:45:00,31.2,27.5,30.18,East,100,1.2,0.0,86,0.00,CLR,SCT,0.00,0.0,WeatherDisplay:10.37,2013-02-15 22:45:00,
2013-02-15 23:50:00,31.1,27.4,30.18,East,99,0.0,0.0,86,0.00,CLR,SCT,0.00,0.0,WeatherDisplay:10.37,2013-02-15 22:50:00,
2013-02-15 23:55:00,31.2,27.5,30.18,East,98,1.2,1.2,86,0.00,CLR,SCT,0.00,0.0,WeatherDisplay:10.37,2013-02-15 22:55:00,